NOAA 16 DEB

Satellite information

Favourite Embed

Satellite Type and Status

DEBRISIN ORBIT

Key statistics

Satellite NOAA 16 DEB at a glance.

Uptime

9165

Days in orbit

Revolutions

≈ 14.5

Per day

Orbit

SSO

Sun Synchronous Orbit

Inclination

99.0

Latest

Satellite identification and parameters

Extended collection of information and parameters for NOAA 16 DEB.

Object identification

Identified? True

Debris? True

Object name: NOAA 16 DEB

International designator: 2000-055GT

Object number (NORAD): 41291

Object ID (CCSDS): 41291

Country: UNITED STATES OF AMERICA (US)

Current information (Y/N): Y

RCS size: SMALL

Orbital parameters

Period: 99.086 minutes

Inclination: 98.9943 deg

SMA: 7093.104 km

Apoapsis: 742.658 km

Periapsis: 687.28 km

RAAN: 167.8907 deg

Eccentricy: 0.0039036

Argument of periapsis: 38.9812 deg

Mean anomaly: 321.4184 deg

Mean motion: 14.53276587 rev/day

Mean motion (dot): 0.00012108 rev/day2

B* drag term: 0.0028957881 1/REarth

Two-line elements (TLE)

Creation date: Oct. 25, 2025, 3:11 a.m.

Reference frame: TEME

Reference center: EARTH

Epoch: Oct. 24, 2025, 8:52 a.m. UTC

TLE line 0: 0 NOAA 16 DEB

TLE line 1: 1 41291U 00055GT 25297.36967943 .00012108 00000-0 28958-2 0 9995

TLE line 2: 2 41291 98.9943 167.8907 0039036 38.9812 321.4184 14.53276587516396

Live tracking on map

Real-time ground track for satellite NOAA 16 DEB.

In-orbit conjunctions

A list of the most updated potential collisions computed for object NOAA 16 DEB.

Target Orbit TCA Probability of collision Miss distance Type
CZ-6A DEB LEO 2024-11-11 19:35:14 0.0001519438 934.0 (m) DEBRIS
COSMOS 1048 LEO 2024-11-04 07:29:40 0.0001135966 155.0 (m) PAYLOAD
ORSTED SSO 2024-10-13 23:35:05 0.0001416064 899.0 (m) PAYLOAD

Associated space launch

The NOAA K, L and M POES satellites begin the fifth generation of improved environmental monitoring in support of NOAA missions. The instrument payload has significant improvements and additions/deletions. The instrument changes have effected the spacecraft subsystems and data formats.

NOAA 16 DEB was lifted into orbit during the mission ‘Titan II SLV | NOAA 16’, on board a Titan II SLV space rocket.

The launch took place on Sept. 21, 2000, 10:22 a.m. from Space Launch Complex 4W.

For more information about the launch, click the button.

Launch to space Titan II SLV | NOAA 16
Titan II SLV | NOAA 16

Agency: N/A

Status: Launch Successful

Launch date: Sept. 21, 2000, 10:22 a.m. UTC

Rocket: Titan II SLV

Launch pad: Space Launch Complex 4W

Location: Vandenberg SFB, CA, USA

...

Latest news about this satellite

There are no fresh news available about this satellite. Check back as we update our databases every day.


Newsletter sign-up

Weekly statistics, charts and insights to help you stay on top of the space industry.